Salt Flat, TX

1:24 AM MDT on October 01, 2016 (GMT -0600)
Guadalupe Pass

Weather History for KGDP - August, 2013

Change the Weather History Date:

Wednesday, August 28, 2013

  Actual Average Record
Temperature  
Mean Temperature 70 °F -  
Max Temperature 80 °F 81 °F 95 °F (2015)
Min Temperature 62 °F 62 °F 57 °F (2005)
Cooling Degree Days 5    
Growing Degree Days 20 (Base 50)    
Moisture  
Dew Point 60 °F    
Average Humidity 73    
Maximum Humidity 96    
Minimum Humidity 48    
Precipitation  
Precipitation 0.09 in - - ()
Sea Level Pressure  
Sea Level Pressure 30.06 in    
Wind  
Wind Speed 12 mph (ENE)    
Max Wind Speed 18 mph    
Max Gust Speed 17 mph    
Visibility 8 miles    
Events Rain    
Averages and records for this station are not official NWS values.
T = Trace of Precipitation, MM = Missing Value Source: NWS Daily Summary

Daily Weather History Graph

Daily Weather History Graph

Search for Another Location

Airport or City:

Trip Planner

Search our weather history database for the weather conditions in past years. The results will help you decide how hot, cold, wet, or windy it might be!

Date:

Astronomy

Aug. 28, 2013 Rise Set
Actual Time 6:32 AM MDT 7:27 PM MDT
Civil Twilight 6:07 AM MDT 7:52 PM MDT
Nautical Twilight 5:37 AM MDT 8:22 PM MDT
Astronomical Twilight 5:07 AM MDT 8:52 PM MDT
Moon No Moon Rise 1:57 PM MDT (8/28)
Length of Visible Light 13h 45m
Length of Day
12h 55m
Waning Gibbous, 47% of the Moon is Illuminated
Aug 28
Waning Gibbous
Sep 5
New
Sep 12
First Quarter
Sep 19
Full
Sep 26
Last Quarter

Hourly Weather History & Observations

Time (MDT) Temp. Dew Point Humidity Pressure Visibility Wind Dir Wind Speed Gust Speed Precip Events Conditions
12:51 AM 66.9 °F 57.9 °F 73% 30.01 in 10.0 mi NE 11.5 mph - N/A   Clear
1:51 AM 66.9 °F 57.9 °F 73% 29.98 in 10.0 mi NE 12.7 mph - N/A   Clear
2:51 AM 64.9 °F 57.9 °F 78% 29.99 in 9.0 mi ENE 15.0 mph - N/A   Overcast
3:51 AM 63.0 °F 57.9 °F 84% 29.99 in 9.0 mi ENE 15.0 mph - N/A   Clear
4:51 AM 62.1 °F 60.1 °F 93% 29.99 in 8.0 mi NE 15.0 mph - N/A   Clear
5:51 AM 63.0 °F 59.0 °F 87% 30.00 in 9.0 mi NE 10.4 mph - N/A   Overcast
6:51 AM 62.1 °F 59.0 °F 90% 30.02 in 7.0 mi ENE 15.0 mph - N/A   Overcast
7:36 AM 62.1 °F 60.1 °F 93% 30.24 in 7.0 mi NE 18.4 mph - N/A   Overcast
7:51 AM 62.1 °F 60.1 °F 93% 30.04 in 7.0 mi ENE 18.4 mph - N/A   Overcast
8:31 AM 66.0 °F 60.1 °F 81% 30.26 in 7.0 mi NE 13.8 mph - N/A   Mostly Cloudy
8:40 AM 66.0 °F 60.1 °F 81% 30.26 in 7.0 mi NE 12.7 mph - N/A   Mostly Cloudy
8:51 AM 68.0 °F 60.1 °F 76% 30.05 in 7.0 mi NE 11.5 mph - N/A   Mostly Cloudy
9:51 AM 73.0 °F 60.1 °F 64% 30.05 in 8.0 mi East 6.9 mph - N/A   Clear
10:51 AM 73.9 °F 59.0 °F 59% 30.06 in 8.0 mi Variable 4.6 mph - N/A   Clear
11:51 AM 75.0 °F 57.0 °F 53% 30.05 in 9.0 mi East 9.2 mph - N/A   Partly Cloudy
12:51 PM 78.1 °F 57.0 °F 48% 30.02 in 9.0 mi East 12.7 mph 17.3 mph N/A   Mostly Cloudy
1:51 PM 78.1 °F 57.9 °F 50% 30.02 in 9.0 mi East 9.2 mph - N/A   Overcast
2:51 PM 77.0 °F 57.9 °F 52% 30.02 in 9.0 mi East 11.5 mph - N/A   Overcast
3:51 PM 77.0 °F 57.0 °F 50% 30.01 in 9.0 mi ENE 9.2 mph - N/A   Mostly Cloudy
4:51 PM 77.0 °F 57.0 °F 50% 30.01 in 9.0 mi ENE 8.1 mph - N/A   Mostly Cloudy
5:51 PM 77.0 °F 57.0 °F 50% 30.00 in 9.0 mi NE 9.2 mph - N/A   Mostly Cloudy
6:51 PM 75.0 °F 59.0 °F 57% 30.01 in 8.0 mi NW 4.6 mph - N/A   Overcast
7:27 PM 66.0 °F 64.9 °F 96% 30.26 in 4.0 mi SSW 11.5 mph - 0.02 in Rain Rain
7:51 PM 66.9 °F 63.0 °F 87% 30.07 in 10.0 mi West 5.8 mph - 0.03 in Rain Light Rain
8:51 PM 70.0 °F 62.1 °F 76% 30.05 in 10.0 mi NNE 9.2 mph - 0.00 in   Mostly Cloudy
9:51 PM 66.9 °F 64.0 °F 90% 30.08 in 9.0 mi WSW 9.2 mph - 0.00 in Rain Light Rain
10:51 PM 66.9 °F 63.0 °F 87% 30.08 in 5.0 mi SSW 4.6 mph - 0.04 in Rain Rain
11:51 PM 68.0 °F 62.1 °F 81% 30.06 in 10.0 mi NNE 11.5 mph - 0.02 in Rain Light Rain